Find Starlink 37125

NORAD ID: 68276 Int'l Des: 2026-055 Owner: SPXS Country: US Constellation: starlink operational
LEOCIRCULAR

Live Position

Loading 3D Globe...

About Starlink 37125

Description loading...

Upcoming Passes

Passes for default location (London). Set your location on the main map for personalized predictions.

Altitude History

Loading altitude history...

Two-Line Element Set

1 68276U 26055Q 26105.42578969 .00167970 00000-0 83657-3 0 9993
2 68276 53.1581 153.0644 0001066 52.1244 307.9875 15.80912832 5494
Epoch: Apr 15, 2026 • Age: 24 hours

Current Status

Altitude 334.3 km
Velocity 7.71 km/s
Sub-Earth Point -25.55°S, 127.25°E
Launch Date Mar 19, 2026
Age 27 days
Type internet

Technical Details

Classification Payload
Mass 575.00 kg
Dry Mass 530.00 kg
Total Mass 575.00 kg
Length 0.30 m
Diameter 4.10 m
Span 29.00 m
Shape Box + pan
Manufacturer SPXS
Bus Type Starlink V2MO
Phase Status In Orbit
Owner/State SPXS/US

Most Searched